Vientiane, Lao Peoples Republic

3:24 AM +07 on June 29, 2017 (GMT +0700)
Wattay International

Weather History for VLVT - March, 2014

Change the Weather History Date:

Tuesday, March 4, 2014

  Actual Average Record
Temperature  
Mean Temperature 85 °F -  
Max Temperature 99 °F 81 °F 99 °F (2014)
Min Temperature 71 °F 72 °F 60 °F (2008)
Cooling Degree Days 20    
Growing Degree Days 35 (Base 50)    
Moisture  
Dew Point 67 °F    
Average Humidity 55    
Maximum Humidity 83    
Minimum Humidity 18    
Precipitation  
Precipitation 0.00 in 0.06 in - ()
Sea Level Pressure  
Sea Level Pressure 29.82 in    
Wind  
Wind Speed 3 mph ()    
Max Wind Speed 7 mph    
Max Gust Speed -    
Visibility 2.2 miles    
Events      
Averages and records for this station are not official NWS values.
T = Trace of Precipitation, MM = Missing Value Source: Averaged Metar Reports

Daily Weather History Graph

Daily Weather History Graph

Search for Another Location

Airport or City:

Trip Planner

Search our weather history database for the weather conditions in past years. The results will help you decide how hot, cold, wet, or windy it might be!

Date:

Astronomy

Mar. 04, 2014 Rise Set
Actual Time 6:26 AM +07 6:16 PM +07
Civil Twilight 6:04 AM +07 6:38 PM +07
Nautical Twilight 5:39 AM +07 7:03 PM +07
Astronomical Twilight 5:14 AM +07 7:29 PM +07
Moon 8:23 AM +07 (3/4) 9:14 PM +07 (3/4)
Length of Visible Light 12h 33m
Length of Day
11h 50m
Waxing Crescent, 11% of the Moon is Illuminated
Mar 4
Waxing Crescent
Mar 8
First Quarter
Mar 17
Full
Mar 24
Last Quarter
Mar 31
New

Hourly Weather History & Observations

Time (+07) Temp. Heat Index Dew Point Humidity Pressure Visibility Wind Dir Wind Speed Gust Speed Precip Events Conditions
12:00 AM 77.0 °F - 69.8 °F 78% 29.86 in 1.2 mi North 4.6 mph - N/A   Mist
1:00 AM 78 °F - 65 °F 57% 29.79 in 1 mi West 4.5 mph - -   Mist
4:00 AM 74 °F - 68 °F 76% 29.77 in 1 mi North 2.2 mph - -   Mist
6:00 AM 73.4 °F - 68.0 °F 83% 29.80 in 1.2 mi North 2.3 mph - N/A   Scattered Clouds
6:30 AM 73.4 °F - 68.0 °F 83% 29.80 in 1.2 mi North 2.3 mph - N/A   Scattered Clouds
7:00 AM 71 °F - 66 °F 80% 29.85 in 1 mi North 2.2 mph - -   Mist
7:00 AM 71.6 °F - 66.2 °F 83% 29.86 in 0.6 mi North 2.3 mph - N/A   Partly Cloudy
8:30 AM 75.2 °F - 69.8 °F 83% 29.89 in 1.9 mi NNW 2.3 mph - N/A   Mist
9:00 AM 78.8 °F - 66.2 °F 65% 29.92 in 2.5 mi NW 2.3 mph - N/A   Mist
9:30 AM 78.8 °F - 66.2 °F 65% 29.92 in 2.5 mi WNW 2.3 mph - N/A   Mist
10:00 AM 84 °F - 68 °F 49% 29.89 in 2 mi NNW 2.2 mph - -   Mist
10:00 AM 84.2 °F 87.3 °F 68.0 °F 58% 29.92 in 2.5 mi NNW 2.3 mph - N/A   Mist
10:30 AM 84.2 °F 87.3 °F 68.0 °F 58% 29.92 in 2.5 mi NW 2.3 mph - N/A   Mist
11:00 AM 86.0 °F 89.4 °F 68.0 °F 55% 29.92 in 3.1 mi ESE 2.3 mph - N/A   Haze
11:30 AM 86.0 °F 89.4 °F 68.0 °F 55% 29.92 in 3.1 mi South 2.3 mph - N/A   Haze
12:00 PM 87.8 °F 91.4 °F 68.0 °F 52% 29.89 in 3.1 mi South 2.3 mph - N/A   Haze
12:30 PM 87.8 °F 91.4 °F 68.0 °F 52% 29.89 in 3.1 mi SSW 2.3 mph - N/A   Haze
1:00 PM 96 °F - 68 °F 30% 29.80 in 3 mi East 2.2 mph - -   Haze
1:00 PM 96.8 °F 101.8 °F 68.0 °F 39% 29.83 in 3.1 mi East 2.3 mph - N/A   Haze
2:00 PM 96.8 °F 101.8 °F 68.0 °F 39% 29.80 in 3.1 mi South 4.6 mph - N/A   Haze
2:30 PM 96.8 °F 101.8 °F 68.0 °F 39% 29.80 in 3.1 mi SSE 4.6 mph - N/A   Haze
3:00 PM 98.6 °F 98.5 °F 59.0 °F 27% 29.77 in 3.1 mi East 2.3 mph - N/A   Haze
3:30 PM 98.6 °F 98.5 °F 59.0 °F 27% 29.77 in 3.1 mi SSW 2.3 mph - N/A   Haze
4:00 PM 99 °F - 59 °F 18% 29.71 in 3 mi ESE 6.7 mph - -   Haze
4:00 PM 98.6 °F 98.5 °F 59.0 °F 27% 29.74 in 3.1 mi NNE 6.9 mph - N/A   Haze
5:30 PM 96.8 °F 96.2 °F 59.0 °F 28% 29.74 in 3.1 mi ESE 4.6 mph - N/A   Haze
6:00 PM 95.0 °F 96.0 °F 62.6 °F 34% 29.77 in 3.1 mi North 2.3 mph - N/A   Haze
6:30 PM 95.0 °F 96.0 °F 62.6 °F 34% 29.77 in 1.9 mi NNW 2.3 mph - N/A   Scattered Clouds
7:00 PM 90 °F - 68 °F 39% 29.75 in 2 mi SW 2.2 mph - -   Mist
7:00 PM 89.6 °F 93.4 °F 68.0 °F 49% 29.77 in 1.9 mi SW 2.3 mph - N/A   Scattered Clouds
7:30 PM 87.8 °F 91.4 °F 68.0 °F 52% 29.80 in 1.9 mi SSW 2.3 mph - N/A   Scattered Clouds
8:00 PM 87.8 °F 92.6 °F 69.8 °F 55% 29.80 in 1.9 mi NNW 2.3 mph - N/A   Partly Cloudy
8:30 PM 86.0 °F 90.4 °F 69.8 °F 58% 29.80 in 1.9 mi North 2.3 mph - N/A   Partly Cloudy
9:00 PM 86.0 °F 90.4 °F 69.8 °F 58% 29.80 in 1.9 mi NW 2.3 mph - N/A   Partly Cloudy
9:30 PM 86.0 °F 90.4 °F 69.8 °F 58% 29.80 in 1.9 mi NNW 2.3 mph - N/A   Partly Cloudy
10:00 PM 82 °F - 71 °F 63% 29.82 in 2 mi SE 2.2 mph - -   Mist
10:00 PM 82.4 °F 87.2 °F 71.6 °F 70% 29.83 in 1.9 mi SE 2.3 mph - N/A   Mist
10:30 PM 82.4 °F 87.2 °F 71.6 °F 70% 29.83 in 1.9 mi NNW 2.3 mph - N/A   Mist
11:00 PM 80.6 °F 84.6 °F 71.6 °F 74% 29.83 in 1.9 mi ESE 2.3 mph - N/A   Mist
11:30 PM 80.6 °F 84.6 °F 71.6 °F 74% 29.83 in 1.9 mi South 2.3 mph - N/A   Mist